[[{"header":{"parameterUnit":"m.s-1","parameterCategory":1,"la1":30.2991,"la2":30.254,"lo1":-89.0895,"lo2":-89.0444,"dy":0.0017,"dx":0.0017,"nx":28,"ny":28,"refTime":"2024-06-21T09:00:00:Z","depth":0,"parameterNumber":2,"parameterNumberName":"U-component_of_WINDS"},"data":[0,0,0,0,0,0,0,0,0,0,0,0,0,0,0,0,0,0,0,0,0,0,0,0,0,0,0,0,0,0,0,0,0,0,0,0,0,0,0,0,0,0,0,0,0,0,0,0,0,0,0,0,0,0,0,0,0,0,-1.2672,-1.2672,0,-1.2605,-1.2604,-1.2603,-1.2523,-1.2522,-1.2521,-1.252,-1.2451,-1.245,-1.2449,0,0,0,0,0,0,0,0,0,0,0,0,0,-1.2735,-1.2734,-1.2672,-1.2671,-1.2671,-1.2605,-1.2604,-1.2603,-1.2524,-1.2522,-1.2521,-1.2519,-1.2451,-1.245,-1.2449,0,0,0,0,0,0,0,0,0,0,0,0,0,-1.2692,-1.2734,-1.2672,-1.2623,-1.2618,-1.2605,-1.2604,-1.2603,-1.2524,-1.2522,-1.252,-1.2519,-1.2451,-1.245,-1.2449,-1.2479,0,0,-1.2446,-1.2445,0,0,0,0,0,0,0,0,-1.2694,-1.2689,-1.2631,-1.2627,-1.2621,-1.2571,-1.26,-1.2561,-1.2524,-1.256,-1.252,-1.2518,-1.2492,-1.2488,-1.2479,-1.2476,-1.2473,-1.2446,-1.2445,-1.2445,-1.2444,0,0,0,0,0,0,0,-1.2697,-1.2692,-1.2645,-1.2631,-1.2624,-1.2605,-1.2597,-1.2593,-1.2537,-1.2557,-1.2551,-1.2544,-1.2489,-1.248,-1.2477,-1.2472,-1.2446,-1.2445,-1.2444,-1.2444,-1.2491,-1.2493,0,0,0,0,0,0,-1.2708,-1.2695,-1.2648,-1.2643,-1.2654,-1.2605,-1.2596,-1.2589,-1.2537,-1.2527,-1.2545,-1.254,-1.2483,-1.2478,-1.2474,-1.2506,-1.2445,-1.2444,-1.2443,-1.2489,-1.2492,-1.2494,0,0,0,0,0,0,-1.2709,-1.2704,-1.265,-1.2668,-1.2659,-1.2606,-1.2598,-1.2588,-1.2579,-1.2528,-1.2518,-1.2546,-1.2481,-1.2475,-1.2479,-1.2502,-1.2443,-1.2442,-1.2487,-1.249,-1.2493,-1.257,0,0,0,0,0,0,-1.2711,-1.2705,-1.2715,-1.2668,-1.2659,-1.2656,-1.26,-1.2588,-1.2578,-1.257,-1.2527,-1.2518,-1.2479,-1.2481,-1.2478,-1.25,-1.2441,-1.2485,-1.2488,-1.2492,-1.2565,-1.2575,-1.2584,0,0,0,0,0,-1.2714,-1.2739,-1.2716,-1.2711,-1.267,-1.2657,-1.2652,-1.2607,-1.258,-1.259,-1.2558,-1.2519,-1.2501,-1.2482,-1.2477,-1.25,-1.2483,-1.2487,-1.2491,-1.2561,-1.2573,-1.2583,0,0,0,0,0,0,-1.279,-1.2732,-1.2706,-1.2717,-1.2693,-1.2644,-1.2655,-1.2621,-1.2604,-1.2598,-1.2544,-1.2535,-1.2545,-1.2522,-1.2502,-1.2527,-1.2486,-1.249,-1.254,-1.2552,-1.2561,-1.2565,-1.244,0,0,0,0,0,-1.2808,-1.2802,-1.2752,-1.2767,-1.2756,-1.2708,-1.2701,-1.2669,-1.2642,-1.2631,-1.2598,-1.2574,-1.2562,-1.2556,-1.2543,-1.2562,-1.2552,-1.2575,-1.2585,-1.2593,-1.2596,-1.2606,-1.2616,-1.2508,-1.2508,-1.2508,0,0,-1.2846,-1.2813,-1.2813,-1.2782,-1.2759,-1.2755,-1.27,-1.2697,-1.2694,-1.263,-1.2631,-1.2607,-1.2576,-1.2588,-1.2592,-1.257,-1.2624,-1.2598,-1.2605,-1.2604,-1.2611,-1.2622,-1.2631,-1.2511,-1.251,-1.251,0,0,-1.2911,-1.2886,-1.2896,-1.2875,-1.2842,-1.281,-1.2813,-1.2769,-1.2751,-1.2751,-1.2704,-1.27,-1.2681,-1.2661,-1.2649,-1.271,-1.2674,-1.2707,-1.2755,-1.2766,-1.2774,-1.2781,-1.2804,-1.2812,-1.2711,-1.2711,-1.2711,0,-1.2961,-1.2952,-1.2905,-1.2906,-1.2894,-1.2838,-1.2848,-1.283,-1.2794,-1.2788,-1.2764,-1.2741,-1.2716,-1.2723,-1.2738,-1.273,-1.2731,-1.2711,-1.2777,-1.2784,-1.279,-1.281,-1.2819,-1.2715,-1.2715,-1.2715,-1.2714,0,-1.3016,-1.3011,-1.3023,-1.2991,-1.2981,-1.2986,-1.2941,-1.2936,-1.2906,-1.2877,-1.2879,-1.2848,-1.2828,-1.2827,-1.2797,-1.283,-1.2818,-1.2787,-1.2745,-1.2805,-1.2823,-1.2831,-1.2722,-1.272,-1.2719,-1.2718,0,0,-1.3126,-1.3069,-1.3074,-1.3059,-1.302,-1.3015,-1.3019,-1.3,-1.2997,-1.2975,-1.2977,-1.2964,-1.2935,-1.2921,-1.2889,-1.2898,-1.295,-1.2866,-1.2864,-1.2882,-1.2985,-1.3008,-1.3018,-1.2926,-1.2928,-1.2929,-1.2988,0,-1.3184,-1.3186,-1.3145,-1.3159,-1.3155,-1.3102,-1.3106,-1.3082,-1.3056,-1.3049,-1.302,-1.3012,-1.2974,-1.2966,-1.2972,-1.2942,-1.2969,-1.2937,-1.2928,-1.2928,-1.2936,-1.3028,-1.3052,-1.3109,-1.2994,-1.2996,-1.2996,0,-1.3251,-1.3234,-1.3248,-1.3209,-1.3205,-1.3209,-1.3189,-1.3183,-1.3156,-1.3136,-1.3122,-1.3086,-1.3088,-1.3049,-1.3052,-1.3031,-1.3025,-1.301,-1.3011,-1.3008,-1.2965,-1.3027,-1.3126,-1.3135,-1.3007,-1.3006,-1.3006,0,-1.333,-1.331,-1.3316,-1.3305,-1.326,-1.3264,-1.3246,-1.3217,-1.3209,-1.3192,-1.3186,-1.3169,-1.316,-1.3149,-1.3109,-1.3085,-1.3117,-1.3075,-1.3101,-1.3102,-1.3109,-1.3109,-1.3209,-1.3106,-1.3106,-1.3106,-1.3106,0,-1.3399,-1.3409,-1.3351,-1.3354,-1.3365,-1.3319,-1.3331,-1.3307,-1.3283,-1.3282,-1.3236,-1.3236,-1.3184,-1.3179,-1.3148,-1.3155,-1.3152,-1.3136,-1.3128,-1.314,-1.3142,-1.3135,-1.3129,-1.3108,-1.3108,-1.3107,-1.3107,0,-1.3488,-1.3449,-1.3452,-1.341,-1.34,-1.3409,-1.3374,-1.3376,-1.3348,-1.3347,-1.3344,-1.33,-1.3291,-1.3252,-1.3233,-1.3213,-1.3231,-1.3214,-1.324,-1.3234,-1.3263,-1.3261,-1.3361,-1.3372,-1.3263,-1.3264,-1.3265,0,-1.3534,-1.354,-1.35,-1.3496,-1.3479,-1.3473,-1.3465,-1.342,-1.3413,-1.3385,-1.3391,-1.3379,-1.3366,-1.3355,-1.3322,-1.3308,-1.3291,-1.3327,-1.3289,-1.3301,-1.3292,-1.3292,-1.3293,-1.3335,-1.3337,-1.3338,-1.3339,0,-1.3619,-1.36,-1.359,-1.3573,-1.3565,-1.3549,-1.3532,-1.3531,-1.3482,-1.3477,-1.3467,-1.3458,-1.3441,-1.3429,-1.3411,-1.3392,-1.3358,-1.3352,-1.3357,-1.3369,-1.3383,-1.3376,-1.3262,-1.3349,-1.3348,-1.3347,-1.3347,-1.3346,-1.3688,-1.3692,-1.3665,-1.3655,-1.3637,-1.3622,-1.3622,-1.3595,-1.3586,-1.3568,-1.3543,-1.3537,-1.3512,-1.3483,-1.3468,-1.3464,-1.3444,-1.3452,-1.3454,-1.3456,-1.3463,-1.3385,-1.346,-1.346,-1.346,-1.3459,-1.3459,0,-1.3772,-1.3752,-1.3743,-1.372,-1.3713,-1.3682,-1.3661,-1.3657,-1.3653,-1.3632,-1.3622,-1.3612,-1.3602,-1.3569,-1.3555,-1.3558,-1.3542,-1.3556,-1.3555,-1.3552,-1.3481,-1.3477,-1.3569,-1.3569,-1.3569,-1.3569,-1.3569,-1.3569,-1.3814,-1.382,-1.3798,-1.3795,-1.3775,-1.377,-1.3761,-1.3747,-1.373,-1.3722,-1.3713,-1.3691,-1.3666,-1.3651,-1.364,-1.3631,-1.3628,-1.3647,-1.3633,-1.3567,-1.3556,-1.3546,-1.3543,-1.3647,-1.3647,-1.3704,-1.3705,-1.3705]},{"header":{"parameterUnit":"m.s-1","parameterCategory":1,"la1":30.2991,"la2":30.254,"lo1":-89.0895,"lo2":-89.0444,"dy":0.0017,"dx":0.0017,"nx":28,"ny":28,"refTime":"2024-06-21T09:00:00:Z","depth":0,"parameterNumber":3,"parameterNumberName":"V-component_of_WINDS"},"data":[0,0,0,0,0,0,0,0,0,0,0,0,0,0,0,0,0,0,0,0,0,0,0,0,0,0,0,0,0,0,0,0,0,0,0,0,0,0,0,0,0,0,0,0,0,0,0,0,0,0,0,0,0,0,0,0,0,0,2.2239,2.224,0,2.2266,2.2266,2.2267,2.2306,2.2306,2.2307,2.2308,2.2332,2.2332,2.2332,0,0,0,0,0,0,0,0,0,0,0,0,0,2.222,2.222,2.2239,2.224,2.224,2.2266,2.2266,2.2267,2.2305,2.2306,2.2307,2.2308,2.2332,2.2332,2.2332,0,0,0,0,0,0,0,0,0,0,0,0,0,2.2235,2.222,2.2239,2.2263,2.2265,2.2266,2.2266,2.2267,2.2305,2.2306,2.2307,2.2308,2.2332,2.2332,2.2332,2.2312,0,0,2.2332,2.2332,0,0,0,0,0,0,0,0,2.2234,2.2236,2.2259,2.2261,2.2264,2.2284,2.2269,2.2282,2.2305,2.229,2.2308,2.2309,2.2315,2.2316,2.2319,2.2313,2.2314,2.2332,2.2332,2.2332,2.2332,0,0,0,0,0,0,0,2.2233,2.2235,2.225,2.2259,2.2262,2.2271,2.2274,2.2271,2.2296,2.2291,2.2294,2.2297,2.2316,2.2319,2.232,2.2314,2.2332,2.2332,2.2332,2.2332,2.2293,2.2292,0,0,0,0,0,0,2.2229,2.2234,2.2249,2.2251,2.2251,2.227,2.2274,2.2276,2.2296,2.2301,2.2296,2.2299,2.2319,2.232,2.2321,2.2299,2.2332,2.2332,2.2332,2.2294,2.2293,2.2292,0,0,0,0,0,0,2.2228,2.223,2.2248,2.2243,2.2246,2.227,2.2271,2.2276,2.2279,2.23,2.2304,2.2294,2.2319,2.2321,2.2314,2.23,2.2332,2.2332,2.2295,2.2294,2.2292,2.2253,0,0,0,0,0,0,2.2228,2.223,2.2222,2.2243,2.2246,2.2241,2.2271,2.2276,2.2279,2.2283,2.23,2.2303,2.232,2.2314,2.2314,2.2301,2.2332,2.2297,2.2295,2.2293,2.2256,2.2251,2.2246,0,0,0,0,0,2.2227,2.221,2.2222,2.2223,2.2238,2.224,2.2242,2.2263,2.2278,2.227,2.2284,2.2303,2.2302,2.2313,2.2313,2.23,2.2298,2.2295,2.2293,2.2258,2.2252,2.2246,0,0,0,0,0,0,2.2186,2.2213,2.2227,2.2216,2.2225,2.2247,2.2238,2.2255,2.226,2.2263,2.2288,2.2292,2.2281,2.229,2.2302,2.2281,2.2303,2.23,2.2276,2.227,2.2265,2.2263,2.2332,0,0,0,0,0,2.2176,2.2176,2.2199,2.2187,2.2192,2.2214,2.2216,2.2231,2.2242,2.2246,2.2259,2.2268,2.227,2.2271,2.2273,2.2258,2.2262,2.2249,2.2244,2.2239,2.2237,2.2229,2.2223,2.2284,2.2284,2.2284,0,0,2.2154,2.2169,2.2168,2.218,2.2189,2.2188,2.2217,2.2215,2.2214,2.2245,2.224,2.225,2.2262,2.225,2.2246,2.2257,2.2221,2.2236,2.2233,2.2233,2.2226,2.222,2.2215,2.2282,2.2283,2.2283,0,0,2.2115,2.2127,2.2118,2.2127,2.2142,2.2157,2.2155,2.2174,2.2182,2.2177,2.2201,2.22,2.2202,2.221,2.2214,2.2179,2.2196,2.2179,2.2152,2.2145,2.214,2.2136,2.2123,2.2118,2.2176,2.2176,2.2176,0,2.2086,2.2087,2.2111,2.2108,2.2112,2.2142,2.2133,2.214,2.2154,2.2156,2.2169,2.2173,2.2183,2.2174,2.2166,2.2168,2.2166,2.2177,2.2139,2.2135,2.2131,2.2119,2.2114,2.2174,2.2174,2.2175,2.2175,0,2.2051,2.2051,2.2042,2.2056,2.206,2.2054,2.2076,2.2077,2.2092,2.2106,2.21,2.2114,2.212,2.2119,2.2133,2.2112,2.2118,2.2134,2.2156,2.2123,2.2112,2.2108,2.2171,2.2172,2.2172,2.2173,0,0,2.1985,2.2014,2.201,2.2017,2.2036,2.2036,2.2031,2.2038,2.2038,2.2047,2.2043,2.2045,2.2061,2.2065,2.2081,2.2074,2.2045,2.2091,2.2092,2.2082,2.2022,2.2009,2.2003,2.2057,2.2056,2.2055,2.202,0,2.1949,2.1943,2.1965,2.1953,2.1954,2.1982,2.1978,2.1988,2.2001,2.2003,2.2016,2.2017,2.2038,2.2041,2.2036,2.2049,2.2033,2.2052,2.2052,2.2052,2.2048,2.1997,2.1983,2.195,2.2016,2.2016,2.2015,0,2.1906,2.1914,2.1902,2.1922,2.1923,2.1919,2.1927,2.1929,2.1941,2.1951,2.1957,2.1975,2.1971,2.1993,2.1987,2.2,2.2001,2.2008,2.2007,2.2007,2.2031,2.1995,2.194,2.1934,2.2009,2.2009,2.201,0,2.1859,2.1866,2.1861,2.1866,2.1889,2.1885,2.1895,2.1908,2.1911,2.1919,2.1921,2.1927,2.193,2.1934,2.1954,2.1968,2.1946,2.1969,2.1953,2.1952,2.1946,2.1946,2.1889,2.1948,2.1948,2.1948,2.1948,0,2.1815,2.1807,2.184,2.1836,2.1828,2.1853,2.1844,2.1856,2.1868,2.1866,2.1891,2.1889,2.1916,2.1916,2.1932,2.1924,2.1926,2.1933,2.1937,2.193,2.1929,2.1931,2.1933,2.1947,2.1947,2.1947,2.1948,0,2.1761,2.1783,2.1778,2.1801,2.1806,2.1799,2.1818,2.1815,2.183,2.1828,2.1829,2.1852,2.1854,2.1875,2.1881,2.1891,2.1878,2.1887,2.1874,2.1876,2.1859,2.186,2.18,2.1794,2.1857,2.1857,2.1856,0,2.1731,2.1726,2.1749,2.175,2.1759,2.176,2.1764,2.1789,2.1792,2.1806,2.1801,2.1806,2.181,2.1812,2.1829,2.1834,2.1843,2.1822,2.1843,2.1837,2.1842,2.1841,2.1841,2.1816,2.1816,2.1815,2.1814,0,2.1677,2.1688,2.1693,2.1702,2.1706,2.1713,2.1723,2.1722,2.175,2.1751,2.1754,2.1758,2.1766,2.1769,2.1777,2.1786,2.1804,2.1808,2.1804,2.1797,2.1789,2.1793,2.186,2.1809,2.1809,2.181,2.181,2.181,2.1634,2.163,2.1646,2.165,2.166,2.1669,2.1667,2.1683,2.1686,2.1695,2.1709,2.171,2.1723,2.1736,2.1743,2.1744,2.1755,2.1749,2.1748,2.1746,2.1742,2.179,2.1745,2.1745,2.1746,2.1746,2.1746,0,2.158,2.1592,2.1596,2.1609,2.1612,2.1631,2.1642,2.1644,2.1645,2.1656,2.166,2.1664,2.1668,2.1686,2.1691,2.1688,2.1697,2.1689,2.1689,2.1691,2.1733,2.1735,2.1682,2.1682,2.1682,2.1682,2.1682,2.1682,2.1552,2.1548,2.1561,2.1561,2.1573,2.1575,2.158,2.1587,2.1596,2.16,2.1604,2.1616,2.1629,2.1636,2.164,2.1645,2.1646,2.1635,2.1643,2.1681,2.1688,2.1693,2.1696,2.1635,2.1635,2.16,2.16,2.16]}]]